Weather History for KHUT - November, 2013

Change the Weather History Date:

Sunday, November 10, 2013

  Actual Average Record
Temperature  
Mean Temperature 51 °F -  
Max Temperature 63 °F 55 °F 75 °F (2012)
Min Temperature 39 °F 32 °F 18 °F (1997)
Degree Days  
Heating Degree Days 14    
Growing Degree Days 1 (Base 50)    
Moisture  
Dew Point 40 °F    
Average Humidity 67    
Maximum Humidity 89    
Minimum Humidity 44    
Precipitation  
Precipitation 0.00 in - - ()
Sea Level Pressure  
Sea Level Pressure 30.28 in    
Wind  
Wind Speed 8 mph (SE)    
Max Wind Speed 16 mph    
Max Gust Speed 23 mph    
Visibility 10 miles    
Events      
Averages and records for this station are not official NWS values.
T = Trace of Precipitation, MM = Missing Value Source: NWS Daily Summary

Daily Weather History Graph

Daily Weather History Graph

Search for Another Location

Airport or City:

Trip Planner

Search our weather history database for the weather conditions in past years. The results will help you decide how hot, cold, wet, or windy it might be!

Date:

Astronomy

Nov. 10, 2013 Rise Set
Actual Time 7:07 AM CST 5:23 PM CST
Civil Twilight 6:39 AM CST 5:50 PM CST
Nautical Twilight 6:07 AM CST 6:22 PM CST
Astronomical Twilight 5:36 AM CST 6:53 PM CST
Moon 1:23 PM CST (11/10) No Moon Set
Length of Visible Light 11h 11m
Length of Day
10h 15m
First Quarter, 56% of the Moon is Illuminated
Nov 10
First Quarter
Nov 17
Full
Nov 25
Last Quarter
Dec 2
New
Dec 9
First Quarter

Hourly Weather History & Observations

Time (CST) Temp. Windchill Dew Point Humidity Pressure Visibility Wind Dir Wind Speed Gust Speed Precip Events Conditions
12:52 AM 39.0 °F 36.8 °F 35.1 °F 86% 30.28 in 10.0 mi NE 3.5 mph - N/A   Clear
1:52 AM 42.1 °F - 35.1 °F 76% 30.28 in 10.0 mi Calm Calm - N/A   Clear
2:52 AM 42.1 °F 39.2 °F 35.1 °F 76% 30.28 in 10.0 mi NNE 4.6 mph - N/A   Clear
3:52 AM 42.1 °F 36.6 °F 34.0 °F 73% 30.30 in 10.0 mi NE 9.2 mph - N/A   Clear
4:52 AM 45.0 °F 40.6 °F 35.1 °F 68% 30.30 in 10.0 mi ENE 8.1 mph - N/A   Clear
5:52 AM 44.1 °F 39.0 °F 33.1 °F 65% 30.33 in 10.0 mi ENE 9.2 mph - N/A   Clear
6:52 AM 43.0 °F 36.4 °F 33.1 °F 68% 30.34 in 10.0 mi East 12.7 mph - N/A   Clear
7:52 AM 46.0 °F 41.0 °F 32.0 °F 58% 30.35 in 10.0 mi ESE 10.4 mph - N/A   Partly Cloudy
8:52 AM 50.0 °F - 32.0 °F 50% 30.36 in 10.0 mi ESE 12.7 mph - N/A   Scattered Clouds
9:52 AM 53.1 °F - 32.0 °F 45% 30.37 in 10.0 mi SE 16.1 mph 23.0 mph N/A   Overcast
10:52 AM 54.0 °F - 33.1 °F 45% 30.37 in 10.0 mi SE 10.4 mph - N/A   Overcast
11:52 AM 59.0 °F - 37.0 °F 44% 30.34 in 10.0 mi SE 13.8 mph - N/A   Mostly Cloudy
12:52 PM 61.0 °F - 39.9 °F 46% 30.29 in 10.0 mi South 13.8 mph - N/A   Partly Cloudy
1:52 PM 63.0 °F - 42.1 °F 46% 30.26 in 10.0 mi South 15.0 mph - N/A   Scattered Clouds
2:52 PM 62.1 °F - 45.0 °F 53% 30.25 in 10.0 mi South 16.1 mph - N/A   Mostly Cloudy
3:52 PM 62.1 °F - 46.0 °F 56% 30.24 in 10.0 mi South 12.7 mph - N/A   Mostly Cloudy
4:52 PM 59.0 °F - 46.9 °F 64% 30.23 in 10.0 mi South 10.4 mph - N/A   Scattered Clouds
5:52 PM 54.0 °F - 46.9 °F 77% 30.23 in 10.0 mi South 6.9 mph - N/A   Clear
6:52 PM 51.1 °F - 46.0 °F 83% 30.24 in 10.0 mi SSE 5.8 mph - N/A   Scattered Clouds
7:52 PM 50.0 °F - 46.0 °F 86% 30.24 in 10.0 mi SSE 4.6 mph - N/A   Scattered Clouds
8:52 PM 51.1 °F - 46.9 °F 86% 30.23 in 10.0 mi SE 3.5 mph - N/A   Overcast
9:52 PM 52.0 °F - 48.0 °F 86% 30.22 in 9.0 mi Calm Calm - N/A   Overcast
10:52 PM 52.0 °F - 48.9 °F 89% 30.22 in 9.0 mi South 5.8 mph - N/A   Overcast
11:52 PM 52.0 °F - 48.0 °F 86% 30.19 in 9.0 mi South 5.8 mph - N/A   Mostly Cloudy